Probability
3 3 3 3 6 3 3 3 3 3 3 3 6 3 3 3 3 3 3 3 6 6 6 6 6 3 3 0 0 0 0 0 0 0 0 0 0 0 0 0 0 0 0
3 3 3 3 3 3 0 0 3 3 3 3 3 3 3 3 3 3 3 3 3 6 6 6 6 6 3 3 3 3 0 0 0 0 0 0 0 0 0 0 0 0 0
3 3 3 3 3 3 3 3 0 0 0 3 3 3 3 3 3 3 3 3 3 3 6 6 6 6 6 3 3 3 3 0 0 0 3 0 0 0 0 0 0 0 0
3 3 3 3 3 3 3 3 0 0 0 0 0 3 3 3 3 3 3 3 3 3 6 6 6 6 3 3 3 3 3 3 3 0 3 0 0 0 0 0 0 0 0
3 3 3 3 3 3 3 3 3 0 0 0 0 0 3 3 3 3 3 3 3 3 3 3 3 3 3 3 3 3 3 3 3 3 3 3 3 0 0 0 0 0 0
0 0 3 3 6 6 3 3 3 3 0 0 0 0 0 0 0 0 0 3 3 3 3 3 3 3 3 0 3 3 3 3 3 3 3 3 3 3 3 0 0 0 3
0 3 3 3 3 3 0 0 0 0 0 0 0 0 0 0 0 0 0 0 3 3 3 3 3 3 3 3 3 0 0 0 3 3 3 3 3 3 3 3 3 3 3
0 3 3 3 3 0 0 0 0 0 0 0 0 0 0 0 0 0 0 0 0 3 3 3 3 3 3 3 3 3 3 3 3 3 3 3 3 3 3 3 3 3 3
3 3 3 3 3 0 0 0 0 0 0 0 0 0 0 0 0 0 0 0 0 0 3 3 3 3 3 3 3 3 3 3 3 0 3 3 0 3 3 3 3 3 3
3 3 3 3 3 0 0 0 0 3 3 3 3 0 0 0 0 0 0 0 0 0 0 3 3 3 3 0 3 3 3 3 3 3 0 0 0 0 0 3 3 3 3
3 3 3 3 0 0 3 3 3 3 3 3 3 0 0 0 0 0 0 0 0 0 0 0 0 3 0 0 0 3 3 3 3 3 3 3 3 3 3 0 3 3 3
3 3 3 0 0 0 0 0 0 3 3 3 3 0 0 0 0 0 0 0 0 0 0 0 0 0 0 0 0 0 0 0 3 3 3 3 3 3 3 3 3 3 3
3 3 3 0 0 0 0 0 0 0 0 0 0 0 0 0 0 0 0 0 0 0 0 0 0 0 0 0 0 0 0 0 3 3 3 3 3 3 3 3 3 0 0
3 3 0 0 0 0 0 0 0 0 0 0 0 0 0 0 0 0 0 0 0 0 0 0 0 0 0 0 0 0 0 3 3 3 3 3 3 3 3 3 3 3 0
3 3 0 0 0 0 0 0 0 0 0 0 0 0 0 0 0 0 0 0 0 0 0 0 0 0 0 0 0 3 3 3 0 3 3 3 3 3 3 3 3 3 0
3 0 0 0 0 0 0 0 0 0 0 0 0 0 0 0 0 0 0 0 0 0 0 0 0 0 0 0 0 0 3 3 3 3 3 3 3 3 0 0 0 0 0
3 0 0 0 0 0 0 0 0 0 0 0 0 0 0 0 0 0 0 0 0 0 0 0 0 0 0 0 0 0 0 0 3 3 0 0 0 0 0 0 0 0 0
0 0 0 0 0 0 0 0 0 0 0 0 0 0 0 0 0 0 0 0 0 0 0 0 0 0 0 0 0 0 0 0 0 0 0 0 0 0 0 0 0 0 0
0 0 0 0 0 0 0 0 0 0 0 0 0 0 0 0 0 0 0 0 0 0 0 0 0 0 0 0 0 0 0 0 0 0 0 0 0 0 0 0 0 0 0
0 0 0 0 0 0 0 0 0 0 0 0 0 0 0 0 0 0 0 0 0 0 0 0 0 0 0 0 0 0 0 0 0 0 0 0 0 0 0 0 0 0 0
0 0 0 0 0 0 0 0 0 0 0 0 0 0 0 0 0 0 0 0 0 0 0 0 0 0 0 0 0 0 0 0 0 0 0 0 0 0 0 0 0 0 0
0 0 0 0 0 0 0 0 0 0 0 0 0 0 0 0 0 0 0 0 0 0 0 0 0 0 0 0 0 0 0 0 0 0 0 0 0 0 0 0 0 0 0
0 0 0 0 0 0 0 0 0 0 0 0 0 0 0 0 0 0 0 0 0 0 0 0 0 0 0 0 0 0 0 0 0 0 0 0 0 0 0 0 0 0 0
0 0 0 0 0 0 0 0 0 0 0 0 0 0 0 0 0 0 0 0 0 0 0 0 0 0 0 0 0 0 0 0 0 0 0 0 0 0 0 0 0 0 0
0 0 0 0 0 0 0 0 0 0 0 0 0 0 0 0 0 0 0 0 0 0 0 0 0 0 0 0 0 0 0 0 0 0 0 0 0 0 0 0 0 0 0
0 0 0 0 0 0 0 0 0 0 0 0 0 0 0 0 0 0 0 0 0 0 0 0 0 0 0 0 0 0 0 0 0 0 0 0 0 0 0 0 0 0 0
Height
5795 5795 5795 5794 5794 5794 5793 5793 5792 5791 5790 5789 5788 5787 5787 5786 5785 5784 5783 5782 5781 5780 5778 5777 5775 5774 5773 5771 5770 5769 5768 5767 5766 5766 5765 5764 5764 5763 5762 5762 5762 5762 5762
5792 5791 5791 5791 5791 5791 5790 5790 5789 5788 5787 5786 5786 5785 5784 5783 5782 5781 5780 5778 5777 5776 5775 5773 5771 5770 5768 5767 5765 5764 5763 5762 5761 5760 5759 5758 5758 5757 5756 5755 5755 5755 5755
5788 5788 5788 5788 5788 5787 5787 5786 5786 5785 5784 5784 5783 5782 5781 5780 5779 5778 5776 5775 5773 5772 5771 5769 5768 5766 5764 5763 5761 5759 5758 5757 5756 5754 5753 5752 5751 5750 5749 5748 5748 5747 5747
5785 5785 5785 5784 5784 5784 5783 5783 5782 5782 5781 5780 5779 5778 5777 5776 5775 5774 5773 5771 5770 5768 5767 5765 5764 5762 5760 5758 5757 5755 5753 5751 5750 5749 5748 5746 5745 5744 5743 5742 5741 5740 5740
5781 5781 5781 5781 5780 5780 5779 5779 5778 5778 5777 5776 5775 5774 5773 5772 5771 5770 5769 5767 5766 5764 5763 5761 5760 5758 5756 5754 5752 5750 5748 5746 5745 5743 5742 5741 5739 5738 5737 5735 5735 5734 5733
5777 5777 5777 5777 5776 5776 5775 5775 5774 5774 5773 5772 5771 5770 5769 5768 5767 5765 5764 5762 5761 5760 5759 5757 5755 5753 5751 5749 5747 5745 5743 5741 5740 5738 5737 5735 5734 5732 5731 5729 5728 5727 5727
5774 5773 5773 5773 5772 5772 5771 5770 5770 5769 5768 5768 5767 5765 5764 5763 5762 5761 5759 5758 5757 5755 5754 5752 5750 5748 5746 5744 5742 5740 5738 5736 5734 5733 5731 5730 5728 5727 5725 5724 5722 5721 5720
5769 5769 5769 5768 5768 5767 5766 5766 5765 5764 5763 5762 5761 5760 5759 5758 5757 5756 5754 5753 5752 5750 5749 5747 5745 5743 5741 5739 5736 5734 5732 5730 5728 5726 5725 5723 5722 5720 5719 5717 5716 5714 5714
5765 5764 5764 5763 5763 5762 5761 5760 5760 5759 5758 5757 5756 5755 5754 5753 5752 5750 5749 5748 5746 5745 5743 5741 5739 5737 5735 5733 5731 5728 5726 5724 5722 5720 5719 5717 5715 5714 5712 5711 5710 5708 5707
5760 5759 5759 5758 5757 5757 5756 5755 5754 5753 5753 5752 5751 5750 5749 5747 5746 5744 5743 5742 5740 5739 5737 5735 5733 5731 5729 5727 5724 5722 5720 5718 5716 5714 5712 5710 5709 5707 5706 5704 5703 5701 5700
5754 5754 5753 5752 5752 5751 5750 5750 5749 5748 5747 5746 5745 5744 5742 5741 5740 5738 5736 5735 5733 5732 5731 5729 5727 5725 5723 5721 5718 5716 5714 5712 5710 5708 5706 5704 5702 5700 5699 5697 5695 5694 5693
5749 5748 5747 5747 5746 5746 5745 5744 5743 5741 5740 5740 5738 5737 5736 5735 5733 5731 5730 5728 5727 5725 5724 5722 5720 5718 5716 5714 5712 5709 5707 5705 5703 5701 5699 5697 5696 5694 5692 5690 5688 5686 5684
5742 5742 5741 5741 5740 5739 5738 5737 5736 5735 5734 5733 5732 5730 5729 5728 5726 5724 5723 5721 5720 5718 5717 5715 5714 5712 5710 5708 5705 5703 5701 5699 5697 5695 5692 5691 5689 5687 5685 5683 5681 5679 5677
5736 5736 5735 5734 5734 5733 5732 5731 5730 5729 5728 5726 5725 5724 5722 5721 5719 5718 5716 5715 5713 5711 5710 5708 5707 5705 5703 5701 5699 5696 5694 5692 5689 5687 5685 5683 5681 5679 5677 5674 5672 5670 5669
5730 5729 5728 5728 5727 5726 5725 5724 5723 5722 5721 5720 5718 5717 5716 5714 5713 5711 5710 5708 5706 5705 5703 5701 5700 5698 5696 5694 5691 5689 5687 5684 5682 5680 5677 5675 5673 5671 5668 5666 5664 5662 5660
5723 5723 5722 5721 5720 5719 5719 5717 5716 5715 5713 5712 5711 5709 5708 5707 5706 5704 5703 5701 5700 5698 5696 5694 5693 5691 5689 5687 5684 5682 5680 5677 5675 5672 5670 5667 5665 5662 5660 5658 5656 5654 5652
5717 5716 5715 5715 5714 5713 5712 5710 5709 5708 5706 5705 5703 5702 5700 5699 5698 5697 5696 5694 5693 5691 5689 5687 5685 5684 5681 5679 5677 5675 5672 5670 5667 5664 5662 5659 5657 5655 5652 5650 5648 5646 5644
5710 5709 5708 5708 5707 5706 5705 5703 5702 5701 5700 5698 5696 5694 5693 5692 5691 5690 5689 5687 5686 5684 5682 5680 5678 5676 5674 5672 5670 5667 5665 5662 5659 5657 5654 5652 5649 5647 5645 5642 5640 5638 5636
5703 5702 5702 5701 5699 5698 5697 5696 5695 5693 5692 5690 5688 5687 5685 5684 5683 5682 5681 5680 5678 5677 5675 5673 5671 5669 5667 5665 5662 5660 5657 5654 5652 5649 5646 5644 5641 5639 5637 5634 5632 5630 5627
5697 5696 5695 5694 5692 5691 5690 5689 5687 5686 5684 5683 5681 5679 5678 5677 5676 5675 5673 5672 5671 5669 5668 5666 5664 5662 5660 5657 5655 5652 5649 5647 5644 5641 5639 5636 5634 5631 5629 5626 5624 5622 5619
5690 5689 5688 5687 5685 5684 5683 5682 5680 5679 5677 5675 5674 5672 5671 5670 5669 5668 5666 5665 5664 5662 5660 5659 5657 5655 5652 5650 5647 5645 5642 5639 5636 5634 5631 5629 5626 5624 5621 5619 5616 5614 5611
5683 5682 5681 5680 5678 5677 5676 5675 5673 5672 5670 5669 5667 5666 5664 5663 5662 5661 5659 5658 5657 5655 5653 5651 5649 5647 5645 5642 5640 5637 5634 5632 5629 5627 5624 5621 5619 5616 5614 5611 5609 5606 5604
5676 5675 5674 5673 5671 5670 5669 5668 5666 5665 5664 5662 5661 5659 5658 5657 5655 5654 5653 5651 5650 5648 5646 5644 5642 5640 5637 5635 5632 5630 5627 5624 5622 5619 5617 5614 5612 5609 5606 5604 5601 5598 5596
5670 5668 5667 5666 5665 5663 5662 5661 5660 5658 5657 5655 5654 5652 5651 5650 5649 5648 5646 5645 5643 5641 5639 5637 5635 5633 5630 5628 5625 5622 5620 5617 5615 5612 5610 5607 5604 5602 5599 5596 5593 5591 5589
5663 5662 5661 5659 5658 5657 5656 5654 5653 5652 5650 5649 5647 5646 5645 5644 5643 5641 5640 5638 5636 5634 5632 5630 5628 5626 5623 5621 5618 5615 5613 5610 5608 5605 5603 5600 5597 5594 5591 5589 5586 5584 5581
5657 5656 5655 5653 5652 5651 5649 5648 5647 5645 5644 5643 5641 5640 5639 5638 5636 5635 5633 5632 5630 5628 5626 5624 5622 5619 5616 5613 5611 5609 5606 5604 5601 5598 5595 5592 5589 5587 5584 5581 5579 5576 5574
Wind_Speed
11 12 12 12 13 12 12 12 12 12 12 12 11 11 11 12 12 13 14 15 15 15 15 16 16 17 17 17 18 18 18 19 19 21 22 23 23 24 25 25 26 26 26
11 12 12 12 12 12 13 13 13 13 13 12 12 12 12 12 12 13 14 14 15 15 15 15 16 16 16 17 18 17 17 19 20 21 22 23 23 24 25 25 26 27 27
11 12 12 12 12 12 13 13 13 13 14 13 13 13 13 13 13 13 13 14 14 15 16 15 16 16 16 17 17 18 18 19 20 20 20 21 22 23 24 25 26 27 27
13 13 13 13 13 13 13 13 13 14 14 14 14 13 13 13 13 14 14 15 15 15 16 16 16 16 16 17 17 18 19 19 20 20 20 21 21 22 23 23 24 25 25
14 14 14 14 14 14 14 14 14 15 15 15 15 15 15 15 15 15 16 16 16 16 17 17 17 18 18 19 19 19 20 20 20 20 20 21 21 22 22 22 23 23 23
14 15 15 15 15 16 16 16 15 16 16 16 17 17 17 16 16 16 16 17 17 18 18 18 18 19 20 20 21 21 21 21 21 21 21 21 21 22 22 22 22 22 22
15 16 15 16 16 16 17 16 17 17 18 18 18 18 17 17 16 17 17 17 17 18 18 18 19 20 20 21 22 22 22 22 22 22 21 21 21 21 22 22 22 22 22
17 16 16 16 17 17 17 16 17 17 17 17 18 17 17 17 17 18 18 18 18 19 19 19 20 20 21 22 22 23 23 23 23 23 22 21 21 21 22 22 23 23 23
17 17 17 17 17 17 17 17 18 17 17 18 18 18 18 19 19 19 19 19 19 20 20 21 21 21 22 22 23 23 23 23 24 24 23 23 22 22 23 23 23 24 23
17 18 18 18 18 17 17 18 18 17 18 19 19 20 20 20 21 21 22 22 21 21 21 22 22 22 22 22 23 22 23 23 23 23 23 23 23 23 24 24 24 24 24
18 18 18 17 17 17 17 18 19 19 19 20 20 21 21 22 22 23 23 23 22 22 22 23 23 23 22 22 22 22 22 22 22 22 23 23 23 24 24 25 25 25 25
19 19 18 18 18 19 19 19 19 20 21 21 22 22 22 22 22 22 22 22 23 23 22 23 23 23 22 21 22 23 22 22 22 23 23 23 23 24 24 25 25 26 26
19 20 20 20 20 20 21 20 20 21 21 21 22 22 22 22 22 22 22 22 22 22 22 23 23 23 23 22 23 23 23 23 24 24 24 24 24 24 25 25 25 25 26
20 20 20 21 21 21 22 21 21 22 22 22 22 22 22 21 21 21 22 22 22 22 23 23 23 23 23 24 24 23 24 24 24 25 25 25 25 25 26 26 26 26 26
21 20 20 20 20 21 21 21 21 21 22 22 22 23 22 21 21 22 22 22 22 22 23 23 23 23 24 24 24 23 23 24 25 25 25 25 26 26 26 26 27 27 27
20 20 21 21 21 22 22 21 21 21 22 22 22 23 23 22 22 22 22 22 22 23 23 23 24 24 23 23 24 24 24 24 24 25 25 26 26 26 25 25 26 26 26
21 21 22 22 23 23 23 22 22 22 22 22 23 23 23 23 23 23 23 23 23 23 23 23 24 24 24 24 24 24 24 25 25 25 25 25 25 25 25 25 26 26 26
21 21 22 23 23 23 23 23 23 23 23 23 23 24 23 23 23 23 23 23 23 23 23 23 24 24 24 24 24 25 26 25 25 25 26 26 26 25 25 25 25 25 25
21 22 23 23 23 23 23 23 23 23 23 24 24 23 22 22 22 23 23 23 23 23 23 23 24 24 24 25 25 25 25 25 25 25 25 25 25 25 25 25 24 24 24
21 22 22 22 22 23 23 23 23 23 23 23 23 22 22 22 22 22 23 23 23 23 23 24 24 24 25 25 25 24 25 25 25 24 24 24 24 24 24 24 24 24 24
21 21 22 22 22 22 22 22 22 22 22 22 21 21 22 22 22 22 23 22 22 23 23 23 24 24 25 25 24 24 24 24 24 24 24 24 23 23 23 23 24 24 24
21 21 22 23 23 22 22 22 22 22 21 21 21 21 22 22 21 22 22 22 23 24 24 23 24 24 24 24 24 24 25 24 24 23 23 23 23 23 23 24 24 24 24
21 21 21 22 22 22 22 22 21 21 21 21 21 22 22 22 22 22 22 23 23 24 24 23 24 24 24 24 25 24 24 24 23 23 23 23 23 24 24 24 24 24 23
20 20 20 20 20 20 21 21 20 20 20 21 21 21 21 21 21 22 22 23 23 23 24 24 24 24 24 24 24 24 23 23 23 23 23 24 24 24 24 24 23 23 23
19 19 19 20 20 20 19 19 19 19 20 20 20 20 20 20 21 21 22 22 22 22 22 23 23 23 23 23 23 23 23 23 23 24 24 24 25 24 24 23 23 23 23
18 18 18 18 18 18 18 18 18 18 18 18 18 19 19 19 20 20 20 21 21 22 22 23 23 23 23 23 24 24 23 24 24 25 24 24 25 24 24 24 23 23 23
Wind_Direction
281 280 278 277 275 279 282 286 289 293 295 295 296 293 290 287 283 284 284 289 291 291 293 292 291 291 290 287 286 284 282 279 278 276 275 275 275 274 271 269 267 266 267
283 281 280 276 275 276 280 284 287 289 289 292 290 291 292 288 287 291 288 290 292 293 295 297 295 293 292 291 289 286 283 282 280 279 277 275 274 275 273 272 271 269 268
284 282 278 275 276 277 278 281 282 285 287 288 285 291 296 291 286 290 292 292 293 294 296 298 298 297 297 296 294 291 290 289 288 285 283 280 279 278 277 275 273 272 269
280 278 275 275 275 277 276 277 279 283 284 286 283 287 291 290 287 289 290 291 293 296 298 300 301 301 301 301 300 297 293 291 290 289 286 285 284 283 282 280 277 275 274
279 276 273 273 276 276 275 277 280 283 285 286 285 286 286 285 285 288 289 289 289 292 295 297 298 300 299 301 302 301 298 296 294 291 288 287 286 286 284 282 279 277 276
282 282 279 278 278 278 279 279 282 286 287 286 287 286 286 285 286 288 290 290 289 290 292 295 297 299 300 301 300 298 298 298 296 293 290 289 287 286 285 284 280 278 277
280 279 277 278 281 281 281 281 282 283 284 285 288 288 287 288 291 292 293 292 292 292 295 297 298 298 298 299 298 297 297 296 296 293 291 289 288 287 286 285 283 280 279
278 277 277 280 282 281 281 282 283 283 285 285 286 287 287 289 291 293 293 293 293 293 295 297 298 298 298 298 297 297 297 296 296 295 292 290 289 288 287 285 284 283 280
280 281 279 280 281 281 280 280 282 283 284 282 285 287 289 291 292 292 292 292 293 294 295 295 296 297 298 298 297 297 297 296 296 296 295 292 289 288 288 286 286 285 281
280 282 280 279 280 280 280 280 282 284 284 284 285 286 288 290 291 291 291 290 291 292 294 295 296 298 298 297 296 295 295 295 296 295 293 293 291 289 288 288 287 287 285
277 279 280 278 280 280 280 281 283 284 285 285 285 287 287 288 290 290 290 289 289 290 292 293 294 296 297 297 296 295 295 296 296 294 294 293 292 291 290 289 288 287 286
275 275 277 277 277 278 279 280 282 283 284 285 286 287 287 288 290 290 290 289 289 290 291 292 294 296 297 298 297 296 295 295 295 295 295 294 293 292 291 290 290 288 286
273 274 277 278 278 278 278 280 282 284 284 284 286 287 288 287 289 289 290 290 289 290 290 291 294 295 296 297 298 298 296 295 296 295 295 294 293 292 291 290 289 289 287
275 276 278 279 279 280 281 281 284 284 285 285 286 287 288 288 288 288 290 289 289 291 291 290 293 296 297 298 298 298 297 297 297 296 295 294 294 293 292 290 290 289 288
277 277 278 279 279 280 282 285 286 286 286 286 285 286 286 286 287 287 288 289 289 290 291 291 293 294 295 296 297 297 298 297 297 297 295 294 294 294 293 291 291 291 289
275 275 276 278 278 280 282 285 287 288 287 286 286 287 286 285 286 287 288 289 290 290 291 293 293 294 295 296 296 297 297 297 298 297 296 295 294 294 293 293 292 292 291
275 276 277 278 279 280 283 284 285 288 287 286 287 288 286 284 285 287 287 289 290 291 292 292 293 293 295 296 296 297 297 297 297 298 298 299 298 297 296 295 295 294 293
275 277 278 278 280 281 282 283 284 286 288 287 288 288 286 285 285 287 288 289 290 292 292 292 292 293 295 295 296 298 299 298 298 298 299 300 300 299 299 299 298 296 294
276 278 278 279 281 282 282 283 284 286 287 288 289 288 288 287 286 286 288 289 290 291 292 292 293 294 295 297 298 298 299 299 299 299 300 301 301 300 299 299 298 297 296
277 278 279 280 281 283 283 283 285 288 288 289 288 288 288 289 288 287 288 289 291 292 293 294 294 294 297 299 300 300 300 299 299 299 300 301 302 301 301 300 298 297 297
279 280 281 282 283 282 283 285 287 288 288 287 287 288 288 287 288 288 287 288 291 293 294 295 294 295 298 299 300 300 301 301 300 300 300 301 302 303 302 300 299 298 298
282 283 285 284 283 281 282 285 287 287 286 286 287 287 287 286 287 289 288 287 289 293 294 295 297 298 299 299 300 300 301 301 301 302 302 301 302 302 302 301 300 300 299
284 284 285 286 286 283 283 285 285 284 283 284 285 285 286 286 286 288 288 288 289 292 294 296 298 300 301 300 300 300 300 299 299 300 301 301 302 302 301 301 300 300 299
283 284 285 286 287 288 287 285 284 283 284 285 285 285 285 288 289 290 290 289 290 292 294 297 300 302 302 302 302 301 300 299 299 301 302 303 303 303 302 302 301 300 299
284 286 287 288 288 288 288 287 285 284 285 286 285 285 286 289 291 292 291 292 293 294 297 300 302 304 304 303 302 303 302 301 301 301 302 302 303 303 303 302 301 300 299
284 285 285 287 288 288 287 287 286 286 286 286 285 287 290 292 293 294 294 295 297 298 298 300 302 303 304 303 303 302 301 301 301 301 301 301 302 302 302 302 302 300 298